Location: Abraham Lincoln Continuation High School
(33.9711°N, 117.3662°W)
Time: 10:17:30
(UTC+00:00)

X-37B - Pass Details

Date: 20 January 2021
Orbit: 383 x 391 km, 45.0° (Epoch: 27 February)

Event Time Altitude Azimuth Distance (km) Brightness Sun altitude
Rises 02:05:20 0° 252° (WSW) 2,263 6.6 -12.0°
Reaches altitude 10° 02:07:28 10° 260° (W) 1,412 4.9 -12.5°
Maximum altitude 02:10:30 41° 332° (NNW) 578 1.5 -13.1°
Enters shadow 02:12:23 19° 35° (NE) 988 2.2 -13.4°
